Hourly Weather Syzran'

Today, 11 July, Saturday

Time Temperature Precipitation Wind Pressure Humidity
00:00 +19°C° 0.3 mm 4 mps 756 mmHg 94%
01:00 +18°C° 0.2 mm 4 mps 756 mmHg 93%
02:00 +18°C° 0.2 mm 4 mps 756 mmHg 92%
03:00 +17°C° 0.2 mm 5 mps 756 mmHg 92%
04:00 +17°C° 0 mm 5 mps 757 mmHg 90%
05:00 +17°C° 0 mm 5 mps 757 mmHg 89%
06:00 +19°C° 0 mm 6 mps 757 mmHg 87%
07:00 +20°C° 0 mm 6 mps 757 mmHg 83%
08:00 +21°C° 0 mm 6 mps 757 mmHg 78%
09:00 +22°C° 0 mm 6 mps 757 mmHg 73%
10:00 +23°C° 0 mm 6 mps 757 mmHg 69%
11:00 +24°C° 0 mm 6 mps 757 mmHg 66%
12:00 +26°C° 0 mm 6 mps 757 mmHg 62%
13:00 +26°C° 0 mm 6 mps 757 mmHg 61%
14:00 +27°C° 0 mm 6 mps 757 mmHg 60%
15:00 +27°C° 0 mm 5 mps 757 mmHg 59%
16:00 +26°C° 0 mm 5 mps 757 mmHg 62%
17:00 +26°C° 0 mm 5 mps 757 mmHg 65%
18:00 +25°C° 0 mm 4 mps 757 mmHg 68%
19:00 +22°C° 0 mm 4 mps 757 mmHg 72%
20:00 +21°C° 0 mm 4 mps 757 mmHg 75%
21:00 +19°C° 0 mm 3 mps 758 mmHg 78%
22:00 +19°C° 0 mm 3 mps 757 mmHg 79%
23:00 +18°C° 0 mm 3 mps 757 mmHg 80%

Tomorrow, 12 July, Sunday

Time Temperature Precipitation Wind Pressure Humidity
00:00 +18°C° 0 mm 3 mps 757 mmHg 82%
01:00 +17°C° 0 mm 3 mps 757 mmHg 83%
02:00 +17°C° 0 mm 3 mps 757 mmHg 85%
03:00 +17°C° 0 mm 3 mps 757 mmHg 86%
04:00 +17°C° 0 mm 3 mps 757 mmHg 84%
05:00 +18°C° 0 mm 4 mps 757 mmHg 82%
06:00 +19°C° 0 mm 4 mps 757 mmHg 80%
07:00 +21°C° 0 mm 5 mps 757 mmHg 76%
08:00 +22°C° 0 mm 5 mps 757 mmHg 71%
09:00 +25°C° 0 mm 5 mps 757 mmHg 66%
10:00 +26°C° 0 mm 5 mps 756 mmHg 65%
11:00 +27°C° 0 mm 5 mps 756 mmHg 63%
12:00 +28°C° 0 mm 5 mps 756 mmHg 61%
13:00 +28°C° 0 mm 5 mps 755 mmHg 62%
14:00 +29°C° 0 mm 5 mps 755 mmHg 62%
15:00 +29°C° 0 mm 5 mps 755 mmHg 63%
16:00 +29°C° 0 mm 5 mps 754 mmHg 67%
17:00 +29°C° 0 mm 4 mps 754 mmHg 70%
18:00 +28°C° 0 mm 4 mps 753 mmHg 74%
19:00 +27°C° 0.2 mm 4 mps 754 mmHg 80%
20:00 +25°C° 0.2 mm 3 mps 754 mmHg 85%
21:00 +23°C° 0.2 mm 2 mps 754 mmHg 91%
22:00 +23°C° 0.1 mm 2 mps 754 mmHg 92%
23:00 +23°C° 0.1 mm 2 mps 753 mmHg 93%

Day after tomorrow, 13 July, Monday

Time Temperature Precipitation Wind Pressure Humidity
00:00 +21°C° 0.1 mm 3 mps 753 mmHg 94%
01:00 +21°C° 0 mm 3 mps 753 mmHg 95%
02:00 +21°C° 0 mm 3 mps 753 mmHg 95%
03:00 +20°C° 0 mm 3 mps 753 mmHg 95%
04:00 +21°C° 0.1 mm 3 mps 752 mmHg 94%
05:00 +21°C° 0.1 mm 3 mps 752 mmHg 94%
06:00 +22°C° 0.1 mm 3 mps 752 mmHg 93%
07:00 +25°C° 0 mm 3 mps 752 mmHg 86%
08:00 +26°C° 0 mm 3 mps 752 mmHg 80%
09:00 +28°C° 0 mm 4 mps 752 mmHg 74%
10:00 +29°C° 0 mm 4 mps 751 mmHg 69%
11:00 +32°C° 0 mm 5 mps 751 mmHg 65%
12:00 +33°C° 0 mm 5 mps 751 mmHg 61%
13:00 +34°C° 0 mm 5 mps 751 mmHg 57%
14:00 +35°C° 0 mm 4 mps 750 mmHg 53%
15:00 +36°C° 0 mm 4 mps 750 mmHg 49%
16:00 +35°C° 0 mm 3 mps 750 mmHg 53%
17:00 +34°C° 0 mm 2 mps 750 mmHg 56%
18:00 +33°C° 0 mm 1 mps 749 mmHg 60%
19:00 +31°C° 0 mm 2 mps 749 mmHg 62%
20:00 +30°C° 0 mm 3 mps 749 mmHg 65%
21:00 +28°C° 0 mm 4 mps 750 mmHg 67%
22:00 +27°C° 0.8 mm 3 mps 749 mmHg 73%
23:00 +25°C° 0.8 mm 3 mps 749 mmHg 80%

14 July, Tuesday

Time Temperature Precipitation Wind Pressure Humidity
00:00 +24°C° 0.8 mm 3 mps 749 mmHg 86%
01:00 +24°C° 0 mm 3 mps 749 mmHg 84%
02:00 +22°C° 0 mm 3 mps 749 mmHg 83%
03:00 +22°C° 0 mm 4 mps 749 mmHg 82%
04:00 +22°C° 0 mm 4 mps 749 mmHg 80%
05:00 +23°C° 0 mm 4 mps 748 mmHg 79%
06:00 +23°C° 0 mm 5 mps 748 mmHg 77%
07:00 +26°C° 0 mm 5 mps 748 mmHg 73%
08:00 +28°C° 0 mm 5 mps 748 mmHg 68%
09:00 +29°C° 0 mm 6 mps 748 mmHg 63%
10:00 +32°C° 0 mm 5 mps 748 mmHg 59%
11:00 +33°C° 0 mm 5 mps 748 mmHg 55%
12:00 +34°C° 0 mm 5 mps 748 mmHg 51%
13:00 +35°C° 0 mm 5 mps 748 mmHg 50%
14:00 +36°C° 0 mm 4 mps 748 mmHg 48%
15:00 +37°C° 0 mm 4 mps 748 mmHg 46%
16:00 +36°C° 0 mm 4 mps 747 mmHg 47%
17:00 +34°C° 0 mm 5 mps 747 mmHg 47%
18:00 +33°C° 0 mm 5 mps 747 mmHg 47%
19:00 +30°C° 0 mm 4 mps 747 mmHg 48%
20:00 +29°C° 0 mm 3 mps 747 mmHg 48%
21:00 +28°C° 0 mm 1 mps 747 mmHg 49%
22:00 +27°C° 0 mm 1 mps 747 mmHg 54%
23:00 +26°C° 0 mm 1 mps 747 mmHg 59%

15 July, Wednesday

Time Temperature Precipitation Wind Pressure Humidity
00:00 +26°C° 0 mm 1 mps 747 mmHg 65%
01:00 +25°C° 0 mm 2 mps 747 mmHg 63%
02:00 +25°C° 0 mm 2 mps 747 mmHg 62%
03:00 +25°C° 0 mm 3 mps 748 mmHg 61%
04:00 +25°C° 0 mm 3 mps 748 mmHg 64%
05:00 +25°C° 0 mm 2 mps 748 mmHg 67%
06:00 +24°C° 0 mm 2 mps 748 mmHg 70%
07:00 +26°C° 0 mm 3 mps 748 mmHg 67%
08:00 +27°C° 0 mm 4 mps 748 mmHg 64%
09:00 +28°C° 0 mm 4 mps 748 mmHg 61%
10:00 +28°C° 0 mm 5 mps 748 mmHg 62%
11:00 +28°C° 0 mm 5 mps 748 mmHg 63%
12:00 +28°C° 0 mm 5 mps 748 mmHg 64%
13:00 +29°C° 0.2 mm 5 mps 748 mmHg 61%
14:00 +29°C° 0.2 mm 6 mps 748 mmHg 59%
15:00 +29°C° 0.2 mm 6 mps 748 mmHg 56%
16:00 +28°C° 0 mm 6 mps 748 mmHg 59%
17:00 +27°C° 0 mm 5 mps 748 mmHg 63%
18:00 +26°C° 0 mm 4 mps 749 mmHg 67%
19:00 +25°C° 0 mm 4 mps 749 mmHg 70%
20:00 +22°C° 0 mm 4 mps 749 mmHg 73%
21:00 +21°C° 0 mm 4 mps 749 mmHg 75%
22:00 +19°C° 0 mm 3 mps 749 mmHg 78%
23:00 +18°C° 0 mm 3 mps 749 mmHg 80%

16 July, Thursday

Time Temperature Precipitation Wind Pressure Humidity
00:00 +17°C° 0 mm 3 mps 749 mmHg 83%
01:00 +16°C° 0 mm 3 mps 749 mmHg 86%
02:00 +14°C° 0 mm 3 mps 749 mmHg 88%
03:00 +13°C° 0 mm 3 mps 749 mmHg 91%
04:00 +14°C° 0 mm 4 mps 749 mmHg 88%
05:00 +15°C° 0 mm 4 mps 749 mmHg 85%
06:00 +15°C° 0 mm 5 mps 749 mmHg 82%
07:00 +16°C° 0 mm 5 mps 750 mmHg 79%
08:00 +17°C° 0 mm 5 mps 750 mmHg 75%
09:00 +19°C° 0 mm 6 mps 750 mmHg 72%
10:00 +19°C° 0 mm 6 mps 750 mmHg 71%
11:00 +20°C° 0 mm 6 mps 750 mmHg 69%
12:00 +20°C° 0 mm 6 mps 750 mmHg 68%
13:00 +20°C° 0 mm 6 mps 751 mmHg 67%
14:00 +20°C° 0 mm 6 mps 751 mmHg 67%
15:00 +20°C° 0 mm 6 mps 751 mmHg 66%
16:00 +20°C° 0 mm 5 mps 751 mmHg 67%
17:00 +20°C° 0 mm 5 mps 751 mmHg 69%
18:00 +20°C° 0 mm 4 mps 751 mmHg 70%
19:00 +18°C° 0 mm 4 mps 751 mmHg 75%
20:00 +17°C° 0 mm 3 mps 751 mmHg 80%
21:00 +16°C° 0 mm 3 mps 752 mmHg 85%
22:00 +15°C° 0 mm 2 mps 752 mmHg 87%
23:00 +15°C° 0 mm 2 mps 752 mmHg 89%
Show more